Time,TemperatureF,DewpointF,PressureIn,WindDirection,WindDirectionDegrees,WindSpeedMPH,WindSpeedGustMPH,Humidity,HourlyPrecipIn,Conditions,Clouds,dailyrainin,SolarRadiationWatts/m^2,SoftwareType,DateUTC
2013-05-28 00:09:00,76.1,72.0,30.12,East,80,0.0,2.0,87,0.00,,,0.00,0,weatherlink.com 1.10,2013-05-28 04:09:00,
2013-05-28 00:24:00,76.2,72.0,30.12,SSE,151,1.0,3.0,86,0.00,,,0.00,0,weatherlink.com 1.10,2013-05-28 04:24:00,
2013-05-28 00:39:00,76.5,72.0,30.11,SE,135,2.0,9.0,86,0.00,,,0.00,0,weatherlink.com 1.10,2013-05-28 04:39:00,
2013-05-28 00:54:00,76.6,71.0,30.12,SSE,155,1.0,6.0,83,0.00,,,0.00,0,weatherlink.com 1.10,2013-05-28 04:54:00,
2013-05-28 01:09:00,76.5,71.0,30.12,North,5,0.0,5.0,83,0.00,,,0.00,0,weatherlink.com 1.10,2013-05-28 05:09:00,
2013-05-28 01:24:00,76.5,71.0,30.11,NE,39,0.0,4.0,84,0.00,,,0.00,0,weatherlink.com 1.10,2013-05-28 05:24:00,
2013-05-28 01:39:00,76.5,71.0,30.11,ESE,117,3.0,5.0,84,0.00,,,0.00,0,weatherlink.com 1.10,2013-05-28 05:39:00,
2013-05-28 01:54:00,76.5,71.0,30.11,SE,141,0.0,5.0,84,0.00,,,0.00,0,weatherlink.com 1.10,2013-05-28 05:54:00,
2013-05-28 02:09:00,76.5,71.0,30.10,SE,144,1.0,3.0,84,0.00,,,0.00,0,weatherlink.com 1.10,2013-05-28 06:09:00,
2013-05-28 02:24:00,76.4,71.0,30.10,SE,129,0.0,3.0,83,0.00,,,0.00,0,weatherlink.com 1.10,2013-05-28 06:24:00,
2013-05-28 02:39:00,76.3,71.0,30.09,ENE,74,2.0,4.0,84,0.00,,,0.00,0,weatherlink.com 1.10,2013-05-28 06:39:00,
2013-05-28 02:54:00,76.5,71.0,30.08,SE,146,0.0,3.0,84,0.00,,,0.00,0,weatherlink.com 1.10,2013-05-28 06:54:00,
2013-05-28 03:09:00,76.6,72.0,30.08,ENE,73,1.0,5.0,84,0.00,,,0.00,0,weatherlink.com 1.10,2013-05-28 07:09:00,
2013-05-28 03:24:00,76.5,71.0,30.08,SE,139,2.0,5.0,84,0.00,,,0.00,0,weatherlink.com 1.10,2013-05-28 07:24:00,
2013-05-28 03:39:00,76.7,72.0,30.07,East,87,1.0,4.0,85,0.00,,,0.00,0,weatherlink.com 1.10,2013-05-28 07:39:00,
2013-05-28 03:55:00,76.7,72.0,30.07,ENE,76,0.0,4.0,85,0.00,,,0.00,0,weatherlink.com 1.10,2013-05-28 07:55:00,
2013-05-28 04:10:00,76.8,72.0,30.07,East,84,0.0,5.0,85,0.00,,,0.00,0,weatherlink.com 1.10,2013-05-28 08:10:00,
2013-05-28 04:25:00,76.7,72.0,30.07,ESE,111,2.0,3.0,85,0.00,,,0.00,0,weatherlink.com 1.10,2013-05-28 08:25:00,
2013-05-28 04:40:00,76.7,72.0,30.06,ENE,63,1.0,4.0,84,0.00,,,0.00,0,weatherlink.com 1.10,2013-05-28 08:40:00,
2013-05-28 04:55:00,76.6,72.0,30.06,SE,126,0.0,5.0,85,0.00,,,0.00,0,weatherlink.com 1.10,2013-05-28 08:55:00,
2013-05-28 05:10:00,76.9,72.0,30.06,NE,54,0.0,7.0,84,0.00,,,0.00,0,weatherlink.com 1.10,2013-05-28 09:10:00,
2013-05-28 05:25:00,76.8,72.0,30.06,ESE,123,0.0,6.0,84,0.00,,,0.00,0,weatherlink.com 1.10,2013-05-28 09:25:00,
2013-05-28 05:40:00,76.7,72.0,30.06,SSE,165,2.0,5.0,85,0.00,,,0.00,0,weatherlink.com 1.10,2013-05-28 09:40:00,
2013-05-28 05:55:00,76.9,72.0,30.06,East,90,2.0,7.0,85,0.00,,,0.00,0,weatherlink.com 1.10,2013-05-28 09:55:00,
2013-05-28 06:10:00,77.0,72.0,30.07,ESE,113,2.0,10.0,85,0.00,,,0.00,0,weatherlink.com 1.10,2013-05-28 10:10:00,
2013-05-28 06:25:00,76.9,72.0,30.07,ESE,111,1.0,3.0,85,0.00,,,0.00,0,weatherlink.com 1.10,2013-05-28 10:25:00,
2013-05-28 06:40:00,76.8,72.0,30.08,SE,138,1.0,4.0,85,0.00,,,0.00,11,weatherlink.com 1.10,2013-05-28 10:40:00,
2013-05-28 06:55:00,76.9,72.0,30.08,ENE,62,1.0,5.0,85,0.00,,,0.00,23,weatherlink.com 1.10,2013-05-28 10:55:00,
2013-05-28 07:10:00,77.0,72.0,30.08,SE,131,1.0,6.0,85,0.00,,,0.00,39,weatherlink.com 1.10,2013-05-28 11:10:00,
2013-05-28 07:25:00,77.3,73.0,30.08,ESE,115,0.0,6.0,85,0.00,,,0.00,58,weatherlink.com 1.10,2013-05-28 11:25:00,
2013-05-28 07:40:00,77.7,73.0,30.08,ENE,75,0.0,4.0,85,0.00,,,0.00,84,weatherlink.com 1.10,2013-05-28 11:40:00,
2013-05-28 07:55:00,78.2,73.0,30.08,NE,51,1.0,5.0,84,0.00,,,0.00,104,weatherlink.com 1.10,2013-05-28 11:55:00,
2013-05-28 08:10:00,78.9,73.0,30.08,SE,129,0.0,13.0,83,0.00,,,0.00,113,weatherlink.com 1.10,2013-05-28 12:10:00,
2013-05-28 08:25:00,79.3,73.0,30.09,WSW,248,0.0,5.0,82,0.00,,,0.00,176,weatherlink.com 1.10,2013-05-28 12:25:00,
2013-05-28 08:40:00,79.6,73.0,30.10,SSE,168,2.0,10.0,80,0.01,,,0.01,149,weatherlink.com 1.10,2013-05-28 12:40:00,
2013-05-28 08:55:00,80.0,73.0,30.10,ESE,115,5.0,7.0,80,0.01,,,0.01,199,weatherlink.com 1.10,2013-05-28 12:55:00,
2013-05-28 09:10:00,80.2,74.0,30.10,WNW,282,0.0,8.0,80,0.01,,,0.01,211,weatherlink.com 1.10,2013-05-28 13:10:00,
2013-05-28 09:25:00,80.3,74.0,30.11,South,171,0.0,7.0,80,0.01,,,0.01,156,weatherlink.com 1.10,2013-05-28 13:25:00,
2013-05-28 09:40:00,80.0,73.0,30.11,SE,132,4.0,7.0,80,0.00,,,0.01,195,weatherlink.com 1.10,2013-05-28 13:40:00,
2013-05-28 09:55:00,79.7,75.0,30.10,East,85,2.0,6.0,84,0.00,,,0.01,255,weatherlink.com 1.10,2013-05-28 13:55:00,
2013-05-28 10:10:00,79.8,75.0,30.10,SE,132,3.0,11.0,84,0.00,,,0.01,149,weatherlink.com 1.10,2013-05-28 14:10:00,
2013-05-28 10:25:00,80.1,73.0,30.11,East,99,6.0,12.0,80,0.00,,,0.01,244,weatherlink.com 1.10,2013-05-28 14:25:00,
2013-05-28 10:40:00,80.5,74.0,30.11,SE,146,4.0,8.0,80,0.00,,,0.01,148,weatherlink.com 1.10,2013-05-28 14:40:00,
2013-05-28 10:55:00,79.3,72.0,30.11,SSE,163,3.0,10.0,78,0.00,,,0.01,197,weatherlink.com 1.10,2013-05-28 14:55:00,
2013-05-28 11:10:00,78.2,72.0,30.11,SSE,147,4.0,8.0,81,0.00,,,0.01,167,weatherlink.com 1.10,2013-05-28 15:10:00,
2013-05-28 11:25:00,77.9,72.0,30.11,ESE,123,3.0,10.0,82,0.00,,,0.01,169,weatherlink.com 1.10,2013-05-28 15:25:00,
2013-05-28 11:40:00,78.1,72.0,30.11,South,169,0.0,10.0,82,0.00,,,0.01,241,weatherlink.com 1.10,2013-05-28 15:40:00,
2013-05-28 11:55:00,79.1,72.0,30.11,SSE,155,0.0,7.0,80,0.00,,,0.01,338,weatherlink.com 1.10,2013-05-28 15:55:00,
2013-05-28 12:10:00,80.5,73.0,30.11,South,172,3.0,9.0,77,0.00,,,0.01,410,weatherlink.com 1.10,2013-05-28 16:10:00,
2013-05-28 12:25:00,81.2,73.0,30.10,ESE,117,1.0,6.0,76,0.00,,,0.01,390,weatherlink.com 1.10,2013-05-28 16:25:00,
2013-05-28 12:40:00,81.1,73.0,30.10,SE,141,4.0,11.0,77,0.00,,,0.01,461,weatherlink.com 1.10,2013-05-28 16:40:00,
2013-05-28 12:55:00,81.7,73.0,30.11,NNW,348,6.0,8.0,75,0.00,,,0.01,371,weatherlink.com 1.10,2013-05-28 16:55:00,
2013-05-28 13:10:00,81.9,73.0,30.10,ESE,122,1.0,7.0,74,0.00,,,0.01,417,weatherlink.com 1.10,2013-05-28 17:10:00,
2013-05-28 13:26:00,82.4,73.0,30.10,SE,146,2.0,8.0,73,0.00,,,0.01,550,weatherlink.com 1.10,2013-05-28 17:26:00,
2013-05-28 13:41:00,83.0,73.0,30.10,SE,144,5.0,9.0,72,0.00,,,0.01,679,weatherlink.com 1.10,2013-05-28 17:41:00,
2013-05-28 13:56:00,82.8,73.0,30.09,SSW,203,4.0,10.0,73,0.00,,,0.01,508,weatherlink.com 1.10,2013-05-28 17:56:00,
2013-05-28 14:11:00,82.8,73.0,30.10,ESE,105,1.0,9.0,72,0.00,,,0.01,464,weatherlink.com 1.10,2013-05-28 18:11:00,
2013-05-28 14:26:00,82.1,74.0,30.09,SE,128,2.0,9.0,75,0.00,,,0.01,246,weatherlink.com 1.10,2013-05-28 18:26:00,
2013-05-28 14:41:00,82.3,73.0,30.09,SE,134,1.0,7.0,73,0.00,,,0.01,267,weatherlink.com 1.10,2013-05-28 18:41:00,
2013-05-28 14:56:00,82.5,73.0,30.08,ESE,109,3.0,9.0,72,0.00,,,0.01,489,weatherlink.com 1.10,2013-05-28 18:56:00,
2013-05-28 15:11:00,83.5,74.0,30.08,SE,128,3.0,8.0,72,0.00,,,0.01,432,weatherlink.com 1.10,2013-05-28 19:11:00,
2013-05-28 15:26:00,83.6,73.0,30.08,SSE,150,4.0,10.0,70,0.00,,,0.01,519,weatherlink.com 1.10,2013-05-28 19:26:00,
2013-05-28 15:41:00,83.4,72.0,30.07,SSE,163,1.0,9.0,69,0.00,,,0.01,515,weatherlink.com 1.10,2013-05-28 19:41:00,
2013-05-28 15:56:00,83.8,73.0,30.07,SE,136,5.0,8.0,71,0.00,,,0.01,290,weatherlink.com 1.10,2013-05-28 19:56:00,
2013-05-28 16:11:00,83.2,73.0,30.07,East,81,5.0,7.0,72,0.00,,,0.01,322,weatherlink.com 1.10,2013-05-28 20:11:00,
2013-05-28 16:26:00,82.5,73.0,30.06,SSE,161,2.0,9.0,72,0.00,,,0.01,318,weatherlink.com 1.10,2013-05-28 20:26:00,
2013-05-28 16:41:00,82.6,73.0,30.06,SE,128,1.0,8.0,73,0.00,,,0.01,234,weatherlink.com 1.10,2013-05-28 20:41:00,
2013-05-28 16:56:00,81.9,73.0,30.06,ENE,71,3.0,7.0,75,0.00,,,0.01,230,weatherlink.com 1.10,2013-05-28 20:56:00,
2013-05-28 17:11:00,81.2,75.0,30.07,NE,48,1.0,7.0,80,0.00,,,0.01,37,weatherlink.com 1.10,2013-05-28 21:11:00,
2013-05-28 17:26:00,76.6,73.0,30.07,SE,128,4.0,9.0,88,0.00,,,0.01,51,weatherlink.com 1.10,2013-05-28 21:26:00,
2013-05-28 17:41:00,75.5,73.0,30.07,SE,128,0.0,7.0,90,0.01,,,0.02,46,weatherlink.com 1.10,2013-05-28 21:41:00,
2013-05-28 17:56:00,75.0,72.0,30.07,ENE,57,0.0,4.0,90,0.01,,,0.02,37,weatherlink.com 1.10,2013-05-28 21:56:00,
2013-05-28 18:11:00,74.7,72.0,30.07,SE,137,1.0,3.0,91,0.01,,,0.02,26,weatherlink.com 1.10,2013-05-28 22:11:00,
2013-05-28 18:26:00,74.9,72.0,30.07,ESE,113,0.0,4.0,90,0.01,,,0.02,23,weatherlink.com 1.10,2013-05-28 22:26:00,
2013-05-28 18:41:00,74.9,72.0,30.07,East,100,1.0,3.0,90,0.00,,,0.02,19,weatherlink.com 1.10,2013-05-28 22:41:00,
2013-05-28 18:56:00,75.1,72.0,30.07,East,85,1.0,4.0,90,0.00,,,0.02,18,weatherlink.com 1.10,2013-05-28 22:56:00,
2013-05-28 19:11:00,75.2,72.0,30.07,East,85,0.0,1.0,89,0.00,,,0.02,18,weatherlink.com 1.10,2013-05-28 23:11:00,
2013-05-28 19:26:00,75.3,72.0,30.08,East,85,0.0,1.0,89,0.00,,,0.02,12,weatherlink.com 1.10,2013-05-28 23:26:00,
2013-05-28 19:41:00,75.3,72.0,30.08,ENE,64,0.0,1.0,90,0.00,,,0.02,9,weatherlink.com 1.10,2013-05-28 23:41:00,
2013-05-28 19:56:00,75.2,72.0,30.08,WSW,244,0.0,1.0,90,0.00,,,0.02,7,weatherlink.com 1.10,2013-05-28 23:56:00,
2013-05-28 20:11:00,75.3,72.0,30.08,NE,42,0.0,3.0,90,0.00,,,0.02,0,weatherlink.com 1.10,2013-05-29 00:11:00,
2013-05-28 20:26:00,75.4,72.0,30.08,ENE,74,0.0,2.0,89,0.00,,,0.02,0,weatherlink.com 1.10,2013-05-29 00:26:00,
2013-05-28 20:41:00,75.5,72.0,30.08,ENE,75,0.0,2.0,89,0.00,,,0.02,0,weatherlink.com 1.10,2013-05-29 00:41:00,
2013-05-28 20:56:00,75.5,73.0,30.08,South,169,0.0,3.0,91,0.00,,,0.02,0,weatherlink.com 1.10,2013-05-29 00:56:00,
2013-05-28 21:11:00,75.5,73.0,30.08,ESE,120,0.0,6.0,91,0.00,,,0.02,0,weatherlink.com 1.10,2013-05-29 01:11:00,
2013-05-28 21:26:00,75.8,72.0,30.07,South,171,2.0,5.0,89,0.00,,,0.02,0,weatherlink.com 1.10,2013-05-29 01:26:00,
2013-05-28 21:41:00,76.0,72.0,30.07,SSE,159,0.0,5.0,88,0.00,,,0.02,0,weatherlink.com 1.10,2013-05-29 01:41:00,
2013-05-28 21:56:00,76.3,73.0,30.07,East,101,1.0,4.0,88,0.00,,,0.02,0,weatherlink.com 1.10,2013-05-29 01:56:00,
2013-05-28 22:11:00,76.4,73.0,30.08,SE,127,0.0,2.0,88,0.00,,,0.02,0,weatherlink.com 1.10,2013-05-29 02:11:00,
2013-05-28 22:26:00,76.6,73.0,30.08,East,92,1.0,6.0,87,0.00,,,0.02,0,weatherlink.com 1.10,2013-05-29 02:26:00,
2013-05-28 22:41:00,76.7,72.0,30.07,SSE,168,0.0,3.0,86,0.00,,,0.02,0,weatherlink.com 1.10,2013-05-29 02:41:00,
2013-05-28 22:56:00,76.7,72.0,30.08,East,100,0.0,7.0,85,0.00,,,0.02,0,weatherlink.com 1.10,2013-05-29 02:56:00,
2013-05-28 23:11:00,76.7,72.0,30.09,SE,124,0.0,2.0,86,0.00,,,0.02,0,weatherlink.com 1.10,2013-05-29 03:11:00,
2013-05-28 23:26:00,76.6,72.0,30.09,ENE,59,0.0,3.0,86,0.00,,,0.02,0,weatherlink.com 1.10,2013-05-29 03:26:00,
2013-05-28 23:41:00,76.7,72.0,30.09,ENE,72,1.0,3.0,86,0.00,,,0.02,0,weatherlink.com 1.10,2013-05-29 03:41:00,
2013-05-28 23:56:00,76.8,72.0,30.09,East,97,0.0,2.0,85,0.00,,,0.02,0,weatherlink.com 1.10,2013-05-29 03:56:00,